Regional Weather Roundup
Issued by NWS

Home | Current Version | Previous Version | Graphics & Text | Print | Product List | Glossary On
Versions: 1 2 3 4 5 6 7 8 9 10 11 12 13 14 15 16 17 18 19 20 21 22 23 24 25 26 27 28 29 30 31 32 33 34 35 36 37 38 39 40 41 42 43 44 45 46 47 48 49 50
000
ASUS43 KLMK 262210
RWRKY
KENTUCKY REGIONAL WEATHER ROUNDUP
NATIONAL WEATHER SERVICE LOUISVILLE KY
600 PM EDT FRI AUG 26 2016

NOTE "FAIR" INDICATES FEW OR NO CLOUDS BELOW 12,000 FEET
WITH NO SIGNIFICANT WEATHER AND/OR OBSTRUCTIONS TO VISIBILITY.

KYZ001>023-026-027-061>063-070>075-262300-
WESTERN AND SOUTH CENTRAL KENTUCKY

CITY           SKY/WX    TMP DP  RH WIND       PRES   REMARKS
PADUCAH        CLOUDY    80  73  79 NW6       30.02R
HENDERSON      CLOUDY    81  72  74 NW12      30.03S THUNDER
OWENSBORO      MOSUNNY   91  76  61 CALM      30.04S HX 102
HOPKINSVILLE   CLOUDY    89  75  65 NE7       30.02F HX  99
BOWLING GREEN  MOSUNNY   93  73  52 E6        30.03F HX 102
GLASGOW        SUNNY     90  72  55 NE6       30.04F HX  96
$$

KYZ024-025-028>034-038-045-046-053-262300-
NORTH CENTRAL KENTUCKY

CITY           SKY/WX    TMP DP  RH WIND       PRES   REMARKS
LOUISVILLE/SDF MOSUNNY   92  68  45 E6        30.04F HX  96
LOUISVILLE/LOU SUNNY     92  68  45 E6        30.06S HX  96
FORT KNOX      SUNNY     90  71  53 E5        30.05F HX  96
$$

KYZ035>037-039>044-047>052-055>060-089>105-262300-
NORTHEAST KENTUCKY

CITY           SKY/WX    TMP DP  RH WIND       PRES   REMARKS
LEXINGTON      MOSUNNY   92  68  45 CALM      30.09S HX  96
COVINGTON      PTSUNNY   91  71  51 W6        30.08S HX  97
FRANKFORT      SUNNY     93  68  43 CALM      30.07S HX  97
$$

KYZ054-064>069-076>088-106>120-262300-
SOUTHEAST KENTUCKY

CITY           SKY/WX    TMP DP  RH WIND       PRES   REMARKS
JACKSON        SUNNY     89  69  51 CALM      30.13R HX  93
LONDON         SUNNY     89  66  46 NE7       30.11R HX  91
SOMERSET       SUNNY     88  66  48 NE3       30.09F HX  90
MIDDLESBORO    CLOUDY    89  71  55 CALM      30.09S HX  95
MONTICELLO     CLEAR    N/A N/A N/A N10G22    30.09S
$$





USA.gov is the U.S. government's official web portal to all federal, state and local government web resources and services.